Weather History for Bangkok (Suvarnabhumi), Thailand

Change the Weather History Date:

Monday, December 12, 2011

  Actual Average (VTBD) Record (VTBD)
Temperature  
Mean Temperature 74 °F -  
Max Temperature 84 °F 89 °F 95 °F (2012)
Min Temperature 65 °F 69 °F 68 °F (2008)
Cooling Degree Days 10    
Growing Degree Days 24 (Base 50)    
Moisture  
Dew Point 56 °F    
Average Humidity 55    
Maximum Humidity 73    
Minimum Humidity 32    
Precipitation  
Precipitation 0.00 in 0.01 in - ()
Sea Level Pressure  
Sea Level Pressure 29.96 in    
Wind  
Wind Speed 7 mph ()    
Max Wind Speed 14 mph    
Max Gust Speed -    
Visibility 5.9 miles    
Events      
Averages and records for this station are not official NWS values.
T = Trace of Precipitation, MM = Missing Value Source: Averaged Metar Reports

Daily Weather History Graph

Daily Weather History Graph

Search for Another Location

Airport:

Trip Planner

Search our weather history database for the weather conditions in past years. The results will help you decide how hot, cold, wet, or windy it might be!

Date:

Astronomy

Dec. 12, 2011 Rise Set
Actual Time 6:28 AM ICT 5:50 PM ICT
Civil Twilight 6:05 AM ICT 6:13 PM ICT
Nautical Twilight 5:39 AM ICT 6:39 PM ICT
Astronomical Twilight 5:12 AM ICT 7:06 PM ICT
Moon 7:23 PM ICT (12/12) 7:40 AM ICT (12/12)
Length of Visible Light 12h 07m
Length of Day
11h 21m
Full, 97% of the Moon is Illuminated
Dec 12
Full
Dec 18
Last Quarter
Dec 25
New
Jan 1
First Quarter
Jan 9
Full

Hourly Weather History & Observations

Time (ICT) Temp. Heat Index Dew Point Humidity Pressure Visibility Wind Dir Wind Speed Gust Speed Precip Events Conditions
12:00 AM 73.4 °F - 55.4 °F 53% 30.01 in - NE 11.5 mph - N/A   Clear
12:30 AM 71.6 °F - 55.4 °F 57% 30.01 in - NE 9.2 mph - N/A   Clear
1:00 AM 72 °F - 58 °F 53% 29.96 in 6 mi NE 3.5 mph - -  
1:00 AM 69.8 °F - 55.4 °F 60% 29.98 in - NNE 8.1 mph - N/A   Clear
1:30 AM 68.0 °F - 55.4 °F 64% 29.98 in - NNE 6.9 mph - N/A   Clear
2:00 AM 68.0 °F - 55.4 °F 64% 29.95 in - North 6.9 mph - N/A   Clear
2:30 AM 68.0 °F - 55.4 °F 64% 29.95 in - NNE 5.8 mph - N/A   Clear
3:00 AM 68.0 °F - 55.4 °F 64% 29.95 in - North 5.8 mph - N/A   Clear
3:30 AM 66.2 °F - 55.4 °F 68% 29.95 in - North 5.8 mph - N/A   Clear
4:00 AM 66.2 °F - 55.4 °F 68% 29.95 in - NNE 4.6 mph - N/A   Clear
4:30 AM 66.2 °F - 55.4 °F 68% 29.95 in - NE 3.5 mph - N/A   Clear
5:00 AM 66.2 °F - 55.4 °F 68% 29.95 in - ENE 4.6 mph - N/A   Clear
5:30 AM 66.2 °F - 57.2 °F 73% 29.95 in - ENE 5.8 mph - N/A   Clear
6:00 AM 66.2 °F - 57.2 °F 73% 29.95 in - NE 4.6 mph - N/A   Clear
6:30 AM 66.2 °F - 57.2 °F 73% 29.98 in 5.6 mi NE 3.5 mph - N/A   Scattered Clouds
7:00 AM 66 °F - 55 °F 59% 29.97 in 6 mi NE 6.9 mph - -   Clear
7:00 AM 66.2 °F - 55.4 °F 68% 29.98 in 5.6 mi North 4.6 mph - N/A   Scattered Clouds
7:30 AM 68.0 °F - 57.2 °F 68% 30.01 in - NNE 4.6 mph - N/A   Clear
8:00 AM 69.8 °F - 55.4 °F 60% 30.01 in - ENE 6.9 mph - N/A   Clear
8:30 AM 69.8 °F - 55.4 °F 60% 30.04 in - ENE 8.1 mph - N/A   Clear
9:00 AM 69.8 °F - 55.4 °F 60% 30.04 in - ENE 8.1 mph - N/A   Clear
9:30 AM 71.6 °F - 55.4 °F 57% 30.04 in - ENE 8.1 mph - N/A   Clear
10:00 AM 71.6 °F - 55.4 °F 57% 30.04 in - NE 9.2 mph - N/A   Clear
10:30 AM 73.4 °F - 55.4 °F 53% 30.04 in - NE 8.1 mph - N/A   Clear
11:00 AM 75.2 °F - 55.4 °F 50% 30.01 in - NE 9.2 mph - N/A   Clear
11:30 AM 75.2 °F - 55.4 °F 50% 30.01 in - ENE 8.1 mph - N/A   Clear
12:00 PM 77.0 °F - 53.6 °F 44% 29.98 in - ENE 8.1 mph - N/A   Clear
12:30 PM 77.0 °F - 53.6 °F 44% 29.98 in - NE 10.4 mph - N/A   Clear
1:00 PM 82 °F - 57 °F 32% 29.92 in 6 mi NNE 13.8 mph - -   Clear
1:00 PM 78.8 °F - 53.6 °F 42% 29.95 in - ENE 9.2 mph - N/A   Clear
1:30 PM 78.8 °F - 55.4 °F 44% 29.92 in - NE 9.2 mph - N/A   Clear
2:00 PM 80.6 °F 80.5 °F 55.4 °F 42% 29.89 in - ENE 9.2 mph - N/A   Clear
2:30 PM 80.6 °F 80.5 °F 55.4 °F 42% 29.89 in - ENE 8.1 mph - N/A   Clear
3:00 PM 80.6 °F 80.5 °F 55.4 °F 42% 29.89 in - ENE 9.2 mph - N/A   Clear
3:30 PM 80.6 °F 80.5 °F 55.4 °F 42% 29.89 in - ENE 9.2 mph - N/A   Clear
4:00 PM 80.6 °F 80.5 °F 55.4 °F 42% 29.86 in - NNE 6.9 mph - N/A   Clear
4:30 PM 80.6 °F 80.5 °F 55.4 °F 42% 29.86 in - NNW 9.2 mph - N/A   Clear
5:00 PM 78.8 °F - 53.6 °F 42% 29.89 in - North 6.9 mph - N/A   Clear
5:30 PM 78.8 °F - 55.4 °F 44% 29.89 in - NNE 5.8 mph - N/A   Clear
6:00 PM 75.2 °F - 55.4 °F 50% 29.89 in - NNE 5.8 mph - N/A   Clear
6:30 PM 78.8 °F - 53.6 °F 42% 29.92 in - NNW 8.1 mph - N/A   Clear
7:00 PM 77 °F - 62 °F 49% 29.90 in 6 mi Calm Calm - -   Clear
7:00 PM 77.0 °F - 55.4 °F 47% 29.92 in - NNW 6.9 mph - N/A   Clear
7:30 PM 75.2 °F - 55.4 °F 50% 29.92 in - NW 8.1 mph - N/A   Clear
8:00 PM 75.2 °F - 57.2 °F 53% 29.95 in - NW 5.8 mph - N/A   Clear
8:30 PM 73.4 °F - 55.4 °F 53% 29.95 in - NW 6.9 mph - N/A   Clear
9:00 PM 73.4 °F - 59.0 °F 61% 29.98 in - NE 5.8 mph - N/A   Clear
9:30 PM 73.4 °F - 57.2 °F 57% 29.98 in - NNE 4.6 mph - N/A   Clear
10:00 PM 71.6 °F - 57.2 °F 60% 29.98 in - NNE 4.6 mph - N/A   Clear
10:30 PM 69.8 °F - 57.2 °F 64% 29.98 in - NNE 5.8 mph - N/A   Clear
11:00 PM 69.8 °F - 57.2 °F 64% 29.98 in - NE 3.5 mph - N/A   Clear
11:30 PM 69.8 °F - 57.2 °F 64% 29.98 in - NE 4.6 mph - N/A   Clear